Home   Weather   Igloolik   Past weeks

Flag for Canada Past Weather in Igloolik, Nunavut, Canada — Yesterday and Last 2 Weeks

Now
30 °F

Passing clouds.


Feels Like: 19 °F
Forecast: 30 / 34 °F
Wind: 15 mph from Northwest

Location: Hall Beach

Current Time: Sep 28, 2016 at 1:19:08 AM

Latest Report: Sep 28, 2016 at 1:00 AM


Visibility: 9 mi

Pressure: 29.98 "Hg

Humidity: 93%

Dew Point: 28 °F

Location of IgloolikLocation

Past Weather in Igloolik — Graph

°F

Igloolik Temperature Yesterday

Maximum temperature yesterday: 37 °F (at 2:00 AM)
Minimum temperature yesterday: 32 °F (at 7:00 PM)
Average temperature yesterday: 34 °F

High & Low Weather Summary for the Past Weeks

 TemperatureHumidityPressure
High45 °F (Sep 25, 2:00 PM)100% (Sep 13, 7:00 PM)30.18 "Hg (Sep 13, 7:00 PM)
Low23 °F (Sep 17, 4:00 AM)60% (Sep 14, 5:00 PM)29.15 "Hg (Sep 13, 4:54 PM)
Average33 °F89%29.81 "Hg
* Reported Sep 13 12:00 AM — Sep 28 12:00 AM, Igloolik, Weather by CustomWeather, © 2016

Note: Actual official high and low records may vary slightly from our data, if they occured in-between our weather recording intervals... More about our weather records

Advertising

Igloolik Weather History for the Previous 24 Hours

Scroll right to see more
 ConditionsComfort  
Time TempWeatherWind HumidityBarometerVisibility
12:00 AM
Wed, Sep 28
32 °FClear.23 mph87%29.96 "Hg9 mi
11:00 PM
Tue, Sep 27
32 °FPartly cloudy.23 mph87%29.97 "Hg9 mi
10:00 PM32 °FMostly cloudy.20 mph87%29.98 "Hg9 mi
9:00 PM32 °FOvercast.23 mph87%29.96 "Hg9 mi
8:00 PM32 °FPassing clouds.21 mph87%29.96 "Hg15 mi
7:00 PM32 °FPartly sunny.18 mph87%29.95 "Hg15 mi
6:00 PM34 °FPartly sunny.26 mph81%29.93 "Hg15 mi
5:00 PM34 °FPartly sunny.22 mph81%29.92 "Hg15 mi
4:00 PM34 °FPartly sunny.26 mph81%29.90 "Hg15 mi
3:00 PM36 °FPartly sunny.28 mph81%29.89 "Hg15 mi
2:00 PM36 °FPartly sunny.28 mph87%29.87 "Hg15 mi
1:00 PM36 °FPartly sunny.25 mph87%29.84 "Hg15 mi
12:00 PM36 °FPartly sunny.25 mph87%29.84 "Hg15 mi
11:00 AM36 °FOvercast.21 mph87%29.82 "Hg15 mi
10:00 AM36 °FOvercast.20 mph93%29.79 "Hg15 mi
9:00 AM34 °FOvercast.10 mph100%29.78 "Hg15 mi
8:00 AM34 °FOvercast.12 mph100%29.77 "Hg8 mi
7:03 AM34 °FOvercast.14 mph100%29.76 "Hg9 mi
6:00 AM34 °FLight rain. Overcast.9 mph93%29.75 "Hg9 mi
5:02 AM34 °FLight rain. Overcast.10 mph100%29.75 "Hg9 mi
4:00 AM36 °FLight rain. Mostly cloudy.14 mph100%29.75 "Hg9 mi
3:00 AM36 °FMostly cloudy.12 mph100%29.76 "Hg9 mi
2:00 AM37 °FOvercast.10 mph87%29.77 "Hg9 mi
1:00 AM36 °FOvercast.8 mph93%29.78 "Hg9 mi
Weather by CustomWeather, © 2016

See weather overviewHow to use our weather pages